sat.trackr.live / text

‹ back to catalog

STARLINK-30332

NORAD 57700 · 2023-129C

PAYLOAD ACTIVE UNKNOWN

§ Identity

Operator
Country
US
Launch date
2023-08-27
Launch site
AFETR
Launch vehicle
Mass (kg)
RCS (m²)

Purposes: comms

External: N2YO · Heavens-Above · Gunter

§ Orbital elements

Epoch: 2026-09-19T22:45:20.018304Z

Period
94.27 min
Inclination
43.0036°
Eccentricity
0.0001279
Mean motion
15.27576644 rev/d
Perigee alt
482.2 km
Apogee alt
483.9 km
Semi-major
6,861.2 km
B*
7.7444e-6
RAAN
108.3388°
Arg perigee
265.4566°
Mean anomaly
94.6139°
Rev number
17,016

§ Raw data

STARLINK-303321 57700U 23129C   26262.94814836 -.00000049  00000+0  77444-5 0  99912 57700  43.0036 108.3388 0001279 265.4566  94.6139 15.27576644170165

JSON: /api/v1/satellites/57700 · /tle

For live sub-satellite position, see the globe view (requires WebGL).

§ Visibility from observer

Set your observer location to see the next 7 days of passes ≥ 10°. The values pass through the URL so the page stays shareable.

No JS? Fill the form by hand. The geolocation button needs JavaScript.